Preview of NWS' New Version of Forecast
This preview is not operational and should not be used for support decisions.
Latest weather observations around

Hagerstown, Washington County Regional Airport (KHGR)

Using English Units (Switch to International System of Units)
Date/ Time (EDT) Wind (mph) Vis. (mi) Weather Sky Cond. Temp (°F) Rel. Humidity Wind Chill (°F) Heat Index (°F) Pressure Precip. (in)
Air Dwpt 6 hour Altimeter (inHg) Sea level (inHg) 1 hr 3 hr 6 hr
Max Min
Sep 23 12:53   10 Mostly Cloudy FEW065 BKN110 88 57     35%   87 29.9 29.91      
Sep 23 11:53 WSW 10 10 Clear CLR 87 57     36%   86 29.92 29.92      
Sep 23 10:53 WSW 11 10 Clear CLR 83 57     41%   82 29.94 29.95      
Sep 23 09:53 SW 9 10 Clear CLR 81 58     45%   81 29.96 29.96      
Sep 23 08:53 S 6 10 Clear CLR 74 63     69%   74 29.98 29.98      
Sep 23 07:53 S 6 8 Clear CLR 69 63     81%     29.97 29.98      
Sep 23 06:53 SSE 6 10 Clear CLR 70 63     78%     29.96 29.97      
Sep 23 05:53 S 6 10 Clear CLR 70 62     76%     29.96 29.96      
Sep 23 04:53 S 7 10 Mostly Clear FEW080 71 63     76%   71 29.95 29.96      
Sep 23 03:53 SSW 3 10 Clear CLR 73 63     71%   73 29.96 29.97      
Sep 23 02:53 S 5 10 Clear CLR 73 64     73%   73 29.97 29.97      
Sep 23 01:53 S 6 10 Clear CLR 74 65     74%   74 29.98 29.98      
Sep 23 00:53 SSE 8 10 Clear CLR 76 65     69%   76 29.99 29.99      
Sep 22 23:53 S 8 10 Clear CLR 77 65     66%   78 30.01 30.01      
Sep 22 22:53 S 9 10 Clear CLR 79 65     62%   80 30.02 30.02      
Sep 22 21:53 SSE 8 10 Clear CLR 79 64     60%   79 30.02 30.03      
Sep 22 20:53 SSE 8 10 Clear   80 63     56%   81 30.03 30.04      
Sep 22 19:53 SSE 8 10 Clear CLR 82 62     51%   83 30.03 30.04      
Sep 22 18:53 S 8 10 Clear CLR 85 62     46%   86 30.03 30.04      
Sep 22 17:53 S 11 10 Clear CLR 88 63     43%   89 30.03 30.04      
Sep 22 16:53 SSW 10 10 Clear CLR 89 62     41%   90 30.04 30.05      
Sep 22 15:53 S 9 10 Mostly Clear FEW065 88 64     45%   89 30.05 30.06      
Sep 22 14:53 SSW 8 10 Mostly Clear FEW055 89 62     41%   90 30.07 30.08      
Sep 22 13:53 3 10 Clear CLR 87 63     45%   88 30.09 30.1      
Sep 22 12:53 SW 7 10 Clear CLR 86 63     46%   87 30.12 30.13      
Sep 22 11:53 3 10 Clear CLR 84 64     51%   85 30.15 30.16      
Sep 22 10:53 Calm 10 Clear CLR 80 65     60%   82 30.17 30.19      
Sep 22 09:53 Calm 10 Clear CLR 76 65     69%   76 30.18 30.19      
Sep 22 08:53 SSE 6 6 Haze CLR 69 64     84%     30.19 30.2      
Sep 22 07:53 Calm 5 Fog/Mist CLR 66 62     87%     30.18 30.2      
Sep 22 06:53 ESE 6 6 Fog/Mist CLR 65 61     87%     30.17 30.18      
Sep 22 05:53 Calm 6 Fog/Mist CLR 66 62     87%     30.17 30.18      
Sep 22 04:53 Calm 5 Fog/Mist CLR 66 63     90%     30.16 30.17      
Sep 22 03:53 Calm 10 Clear CLR 69 62     78%     30.16 30.17      
Sep 22 02:53 ENE 3 9 Clear CLR 69 63     81%     30.17 30.18      
Sep 22 01:53 E 5 7 Clear CLR 68 64     87%     30.19 30.2      
Sep 22 00:53 Calm 10 Clear CLR 70 64     81%     30.2 30.21      
Sep 21 23:53 Calm 10 Clear CLR 72 65     79%   73 30.2 30.21      
Sep 21 22:53 Calm 10 Clear CLR 73 65     76%   74 30.2 30.21      
Sep 21 21:53 SE 6 10 Clear CLR 74 65     74%   74 30.19 30.21      
Sep 21 20:53 S 7 10 Partly Cloudy SCT070 78 64     62%   79 30.19 30.2      
Sep 21 19:53 SE 6 10 Clear CLR 81 62     53%   82 30.16 30.18      
Sep 21 18:53 SSE 5 10 Mostly Cloudy SCT065 BKN080 84 60     44%   84 30.16 30.17      
Sep 21 17:53 SE 7 10 Mostly Clear FEW070 86 61     43%   86 30.15 30.16      
Sep 21 16:53 S 7 10 Partly Cloudy SCT060 86 60     42%   86 30.15 30.16      
Sep 21 15:53 SSE 7 10 Clear CLR 87 60     40%   87 30.15 30.17      
Sep 21 14:53 NE 5 10 Mostly Clear FEW055 86 59     40%   85 30.18 30.19      
Sep 21 13:53 SSE 6 10 Partly Cloudy SCT075 84 59     43%   84 30.2 30.21      
Sep 21 12:53 SSW 7 10 Clear CLR 82 56     41%   82 30.22 30.24      
Sep 21 11:53 WSW 3 10 Clear CLR 78 55     45%   78 30.24 30.26      
Sep 21 10:53 Calm 10 Clear CLR 73 55     53%   73 30.26 30.27      
Sep 21 09:53 SSE 3 10 Clear CLR 68 55     63%     30.27 30.29      
Sep 21 08:53 Calm 10 Clear CLR 63 53     70%     30.27 30.29      
Sep 21 07:53 Calm 10 Clear CLR 58 52     81%     30.26 30.29      
Sep 21 06:53 E 3 10 Clear CLR 59 52     78%     30.25 30.27      
Sep 21 05:53 Calm 10 Clear CLR 61 51     70%     30.24 30.26      
Sep 21 04:53 Calm 10 Mostly Clear FEW060 60 51     72%     30.23 30.25      
Sep 21 03:53 Calm 10 Clear CLR 61 51     70%     30.23 30.24      
Sep 21 02:53 Calm 10 Mostly Clear FEW060 63 51     65%     30.23 30.25      
Sep 21 01:53 Calm 10 Mostly Clear FEW060 63 51     65%     30.23 30.25      
Sep 21 00:53 E 6 10 Clear CLR 64 51     63%     30.23 30.24      
Sep 20 23:53 ENE 5 10 Clear CLR 64 51     63%     30.23 30.25      
Sep 20 22:53 E 3 10 Clear CLR 65 51     61%     30.23 30.24      
Sep 20 21:53 SE 6 10 Clear CLR 68 50     53%     30.23 30.24      
Sep 20 20:53 SE 6 10 Clear CLR 71 51     49%   70 30.22 30.24      
Sep 20 19:53 S 7 10 Clear   72 50     46%   71 30.2 30.23      
Sep 20 18:53 SSE 7 10 Clear CLR 76 50     40%   75 30.19 30.21      
Sep 20 17:53 S 7 10 Clear   79 48     34%   78 30.19 30.21      
Sep 20 16:53 SSE 8 10 Clear CLR 79 49     35%   78 30.19 30.21      
Sep 20 15:53 WNW 5 10 Clear CLR 79 48     34%   78 30.2 30.22      
Sep 20 14:53 SE 6 10 Clear CLR 78 49     36%   77 30.21 30.23      
Sep 20 13:53 SSE 3 10 Clear CLR 75 48     38%   74 30.24 30.26      
Sep 20 12:53 S 7 10 Clear CLR 72 48     43%   71 30.26 30.28      
Sep 20 11:53 SW 9 10 Clear CLR 68 48     49%     30.28 30.3      
May 15 02:07 S 7 10 Cloudy BKN055 OVC065 66 63     90%     29.96        
May 14 18:53 SSW 7 5 Light Rain and Fog/Mist FEW090 OVC110 72 68     87%   73 29.95 29.96 0    
May 13 23:01 Calm 5 Light Rain and Fog/Mist SCT007 BKN019 OVC110 60 59     96%     30.03   0    
May 13 03:46 NNE 5 2 Rain and Fog/Mist SCT008 BKN029 OVC049 63 62     97%     30.07   0    
May 13 03:18 NW 8 2 Thunderstorms and Rain and Fog/Mist FEW007 BKN031 OVC042 63 62     97%     30.08   0    
May 12 18:53 N 15 5 Light Rain FEW075 BKN090 OVC120 71 63     76%   71   30.02 0    
May 12 15:53 S 9 10 Clear CLR 86 63     46%   87 29.93 29.95      
May 12 08:53 NW 3 10 Clear CLR 59 52     78%     30.1 30.12      
May 12 03:53 NNW 13 10 Clear   59 47     64%     30.04 30.06      
May 12 00:53 NW 6 10 Mostly Clear FEW075 61 51     70%     30.05 30.07      
Jun 11 15:53 W 13 10 Clear CLR 91 60     36%   91 30.09 30.1      
Jun 11 12:53 WSW 13 10 Clear CLR 88 62     42%   88 30.12 30.13      
Jun 11 03:53 S 7 10 Clear CLR 70 60     71%     30.08 30.08      
Jun 08 13:53 NE 7 10 Mostly Cloudy BKN060 74 46     37%   73 29.94 29.96